CWLEESTJE Weather Reports


Display with metric or nautical units.
time (UTC)temp
F
wind
direction
speed
MPH
gust
MPH
rain 1hr
in
rain 24hr
in
rain mn
in
humidity
%
barometer
mb
20260503213528 57 179 2.0 5.0 0.00 1.14 0.23 91
20260503212533 57 176 4.0 7.0 0.00 1.14 0.23 91
20260503211545 57 171 4.0 7.0 0.00 1.14 0.23 91
20260503210528 57 167 7.0 10.0 0.00 1.14 0.23 92
20260503205543 57 178 4.0 7.0 0.00 1.14 0.23 91
20260503204522 57 163 5.0 10.0 0.00 1.14 0.23 91
20260503203527 57 163 4.0 8.0 0.00 1.14 0.23 92
20260503202519 58 155 5.0 8.0 0.00 1.14 0.23 92
20260503201523 58 164 5.0 9.0 0.00 1.14 0.23 91
20260503200535 58 165 4.0 6.0 0.00 1.14 0.23 92
20260503195518 58 157 4.0 7.0 0.00 1.14 0.23 92
20260503194532 58 144 6.0 8.0 0.00 1.14 0.23 92
20260503193536 58 150 5.0 7.0 0.00 1.14 0.23 92
20260503192544 58 159 5.0 7.0 0.00 1.14 0.23 92
20260503191527 58 157 6.0 8.0 0.00 1.14 0.23 92
20260503190540 58 164 5.0 6.0 0.00 1.14 0.23 92
20260503185533 58 165 4.0 5.0 0.00 1.18 0.23 92
20260503184516 58 165 3.0 5.0 0.00 1.18 0.23 92
20260503183530 59 165 4.0 6.0 0.00 1.18 0.23 92
20260503182535 59 166 4.0 6.0 0.00 1.18 0.23 92
20260503181544 59 171 4.0 6.0 0.00 1.18 0.23 92
20260503180528 59 171 4.0 6.0 0.00 1.18 0.23 92
20260503175541 59 169 3.0 6.0 0.00 1.50 0.23 92
20260503174526 59 175 4.0 7.0 0.00 1.50 0.23 92
20260503173530 60 173 5.0 8.0 0.00 1.50 0.23 92
20260503172522 60 178 6.0 8.0 0.00 1.50 0.23 92
20260503171555 60 184 6.0 9.0 0.04 1.50 0.23 92
20260503170517 60 186 4.0 7.0 0.04 1.50 0.23 92
20260503150533 58 213 6.0 7.0 0.08 1.26 0.18 91
20260503130546 65 194 11.0 16.0 0.00 0.63 0.06 83
20260503110521 62 236 11.0 13.0 0.00 0.63 0.06 89
20260503081541 59 248 6.0 8.0 0.04 0.59 0.05 91
20260503080533 59 260 7.0 10.0 0.04 0.59 0.05 91
20260503072518 58 240 10.0 13.0 0.04 0.55 0.04 91
20260503071531 58 255 9.0 11.0 0.08 0.55 0.04 91
20260503070532 58 236 8.0 12.0 0.16 0.55 0.04 91
20260503054545 59 207 8.0 10.0 0.00 0.35 0.00 90
20260503053528 59 227 9.0 11.0 0.00 0.35 0.00 90
20260503052541 59 215 9.0 11.0 0.00 0.35 0.00 90
20260503051524 59 214 6.0 9.0 0.00 0.35 0.00 90
20260503050538 59 196 7.0 8.0 0.00 0.35 0.00 90
20260503045521 59 194 7.0 8.0 0.00 0.35 0.00 90
20260503044534 59 194 7.0 10.0 0.00 0.35 0.00 90
20260503043534 59 179 7.0 9.0 0.00 0.35 0.00 90
20260503042517 59 360 6.0 7.0 0.00 0.35 0.00 90
20260503041551 59 179 3.0 6.0 0.00 0.35 0.00 90
20260503040544 59 181 5.0 7.0 0.00 0.35 0.00 90
20260503035535 59 168 3.0 6.0 0.00 0.35 0.00 90
20260503034519 59 159 3.0 6.0 0.00 0.35 0.00 90
20260503033523 59 162 4.0 5.0 0.00 0.35 0.00 90
20260503032553 59 163 4.0 6.0 0.00 0.35 0.00 90
20260503031524 59 158 5.0 6.0 0.00 0.35 0.00 90
20260503030528 59 167 2.0 6.0 0.00 0.35 0.00 89
20260503025523 59 167 4.0 7.0 0.00 0.75 0.00 89
20260503024526 59 183 4.0 8.0 0.00 0.75 0.00 89
20260503023538 59 156 4.0 8.0 0.00 0.75 0.00 90
20260503022523 59 153 5.0 8.0 0.00 0.75 0.00 90
20260503021533 59 162 3.0 7.0 0.00 0.75 0.00 90
20260503020537 59 165 4.0 7.0 0.00 0.75 0.00 90
20260503015521 59 168 3.0 6.0 0.00 0.91 0.00 90
20260503014534 59 178 4.0 8.0 0.00 0.91 0.00 90
20260503013547 59 156 5.0 7.0 0.00 0.91 0.00 89
20260503012530 59 154 4.0 6.0 0.00 0.91 0.00 89
20260503011543 60 148 4.0 7.0 0.00 0.91 0.00 89
20260503010527 60 157 5.0 7.0 0.00 0.91 0.00 89
20260503005535 60 174 4.0 7.0 0.00 0.91 0.00 89
20260503004520 60 171 3.0 6.0 0.00 0.91 0.00 89
20260503003553 60 159 5.0 8.0 0.00 0.91 0.00 89
20260503002536 60 171 6.0 9.0 0.00 0.91 0.00 90
20260503001528 60 185 5.0 9.0 0.00 0.91 0.00 90
20260503000533 60 194 7.0 9.0 0.00 0.91 0.00 90
20260502235545 60 188 7.0 10.0 0.00 0.91 0.00 90
20260502234525 60 179 9.0 13.0 0.00 0.91 0.00 91
20260502233538 59 155 5.0 8.0 0.00 0.91 0.00 91
20260502232522 59 159 4.0 6.0 0.00 0.91 0.00 91
20260502231526 59 158 1.0 4.0 0.00 0.91 0.00 91
20260502230519 59 159 1.0 5.0 0.00 0.91 0.00 91
20260502225552 59 158 1.0 5.0 0.00 0.91 0.00 91
20260502224534 59 157 2.0 6.0 0.00 0.91 0.00 90
20260502223518 59 135 5.0 7.0 0.00 0.91 0.00 90
20260502222527 59 131 5.0 7.0 0.00 0.91 0.00 90
20260502221540 59 134 4.0 7.0 0.00 0.91 0.00 90
20260502220543 59 137 3.0 5.0 0.00 0.91 0.00 90
20260502215535 59 137 3.0 6.0 0.00 0.91 0.18 90
20260502214519 58 133 5.0 6.0 0.00 0.91 0.18 89